Weather History for Little Falls, MN

Change the Weather History Date:

Monday, September 23, 2013

  Actual Average Record
Temperature  
Mean Temperature 61 °F -  
Max Temperature 71 °F 65 °F 84 °F (1958)
Min Temperature 51 °F 40 °F 25 °F (1983)
Degree Days  
Heating Degree Days 4    
Growing Degree Days 11 (Base 50)    
Moisture  
Dew Point 49 °F    
Average Humidity 67    
Maximum Humidity 88    
Minimum Humidity 43    
Precipitation  
Precipitation 0.00 in - - ()
Sea Level Pressure  
Sea Level Pressure 29.87 in    
Wind  
Wind Speed 11 mph (SE)    
Max Wind Speed 18 mph    
Max Gust Speed 28 mph    
Visibility 10 miles    
Events      
Averages and records for this station are not official NWS values.
T = Trace of Precipitation, MM = Missing Value Source: NWS Daily Summary

Daily Weather History Graph

Daily Weather History Graph

Search for Another Location

Airport:

Trip Planner

Search our weather history database for the weather conditions in past years. The results will help you decide how hot, cold, wet, or windy it might be!

Date:

Astronomy

Sep. 23, 2013 Rise Set
Actual Time 7:05 AM CDT 7:12 PM CDT
Civil Twilight 6:36 AM CDT 7:42 PM CDT
Nautical Twilight 6:01 AM CDT 8:17 PM CDT
Astronomical Twilight 5:25 AM CDT 8:52 PM CDT
Moon 9:29 PM CDT (9/23) 11:40 AM CDT (9/23)
Length of Visible Light 13h 06m
Length of Day
12h 06m
Waning Gibbous, 81% of the Moon is Illuminated
Sep 23
Waning Gibbous
Sep 26
Last Quarter
Oct 4
New
Oct 11
First Quarter
Oct 18
Full

Hourly Weather History & Observations

Time (CDT) Temp. Dew Point Humidity Pressure Visibility Wind Dir Wind Speed Gust Speed Precip Events Conditions
12:14 AM 57.2 °F 51.8 °F 82% 29.83 in 10.0 mi ESE 9.2 mph - N/A   Clear
12:34 AM 55.4 °F 51.8 °F 88% 29.84 in 10.0 mi SE 8.1 mph - N/A   Clear
12:55 AM 55.4 °F 51.8 °F 88% 29.84 in 10.0 mi SE 8.1 mph - N/A   Clear
1:15 AM 55.4 °F 51.8 °F 88% 29.84 in 10.0 mi SE 9.2 mph - N/A   Clear
1:34 AM 55.4 °F 51.8 °F 88% 29.85 in 10.0 mi SE 6.9 mph - N/A   Clear
1:54 AM 55.4 °F 51.8 °F 88% 29.86 in 10.0 mi SE 8.1 mph - N/A   Clear
2:15 AM 55.4 °F 51.8 °F 88% 29.86 in 10.0 mi SE 8.1 mph - N/A   Clear
2:34 AM 55.4 °F 51.8 °F 88% 29.86 in 10.0 mi SE 9.2 mph - N/A   Clear
2:55 AM 55.4 °F 50.0 °F 82% 29.86 in 10.0 mi SE 11.5 mph - N/A   Clear
3:15 AM 55.4 °F 50.0 °F 82% 29.85 in 10.0 mi SE 9.2 mph - N/A   Clear
3:34 AM 55.4 °F 50.0 °F 82% 29.84 in 10.0 mi SE 10.4 mph - N/A   Clear
3:54 AM 55.4 °F 50.0 °F 82% 29.84 in 10.0 mi SE 11.5 mph - N/A   Clear
4:15 AM 55.4 °F 50.0 °F 82% 29.84 in 10.0 mi SE 11.5 mph - N/A   Clear
4:34 AM 55.4 °F 50.0 °F 82% 29.85 in 10.0 mi SE 10.4 mph - N/A   Clear
4:54 AM 55.4 °F 50.0 °F 82% 29.86 in 10.0 mi SE 10.4 mph - N/A   Clear
5:14 AM 55.4 °F 50.0 °F 82% 29.86 in 10.0 mi SE 9.2 mph - N/A   Clear
5:34 AM 53.6 °F 48.2 °F 82% 29.86 in 10.0 mi SE 6.9 mph - N/A   Clear
5:55 AM 53.6 °F 48.2 °F 82% 29.87 in 10.0 mi SE 6.9 mph - N/A   Clear
6:14 AM 51.8 °F 48.2 °F 88% 29.87 in 10.0 mi ESE 6.9 mph - N/A   Clear
6:35 AM 51.8 °F 48.2 °F 88% 29.87 in 10.0 mi SE 9.2 mph - N/A   Clear
6:54 AM 51.8 °F 46.4 °F 82% 29.87 in 10.0 mi ESE 8.1 mph - N/A   Clear
7:14 AM 51.8 °F 46.4 °F 82% 29.87 in 10.0 mi ESE 6.9 mph - N/A   Clear
7:35 AM 51.8 °F 46.4 °F 82% 29.88 in 10.0 mi SE 8.1 mph - N/A   Clear
7:54 AM 53.6 °F 46.4 °F 77% 29.88 in 10.0 mi SE 9.2 mph - N/A   Clear
8:14 AM 53.6 °F 46.4 °F 77% 29.88 in 10.0 mi SE 9.2 mph - N/A   Clear
8:34 AM 55.4 °F 48.2 °F 77% 29.88 in 10.0 mi SE 10.4 mph - N/A   Clear
8:54 AM 55.4 °F 48.2 °F 77% 29.88 in 10.0 mi SE 11.5 mph - N/A   Clear
9:15 AM 57.2 °F 48.2 °F 72% 29.87 in 10.0 mi SE 11.5 mph - N/A   Clear
9:35 AM 59.0 °F 50.0 °F 72% 29.87 in 10.0 mi SE 12.7 mph 18.4 mph N/A   Clear
9:54 AM 60.8 °F 48.2 °F 63% 29.87 in 10.0 mi SE 15.0 mph - N/A   Clear
10:15 AM 62.6 °F 48.2 °F 59% 29.87 in 10.0 mi SSE 18.4 mph 25.3 mph N/A   Clear
10:35 AM 62.6 °F 50.0 °F 63% 29.87 in 10.0 mi SE 11.5 mph 17.3 mph N/A   Clear
10:54 AM 62.6 °F 50.0 °F 63% 29.87 in 10.0 mi SSE 15.0 mph 20.7 mph N/A   Clear
11:15 AM 66.2 °F 48.2 °F 52% 29.87 in 10.0 mi SSE 18.4 mph 27.6 mph N/A   Clear
11:35 AM 66.2 °F 48.2 °F 52% 29.87 in 10.0 mi SE 17.3 mph 21.9 mph N/A   Clear
11:54 AM 68.0 °F 48.2 °F 49% 29.88 in 10.0 mi SSE 17.3 mph 21.9 mph N/A   Clear
12:14 PM 68.0 °F 48.2 °F 49% 29.87 in 10.0 mi SSE 17.3 mph 23.0 mph N/A   Clear
12:35 PM 68.0 °F 50.0 °F 52% 29.87 in 10.0 mi SSE 16.1 mph 21.9 mph N/A   Clear
12:54 PM 68.0 °F 50.0 °F 52% 29.87 in 10.0 mi SSE 16.1 mph 24.2 mph N/A   Clear
1:15 PM 69.8 °F 50.0 °F 49% 29.87 in 10.0 mi SSE 18.4 mph 23.0 mph N/A   Clear
1:35 PM 68.0 °F 50.0 °F 52% 29.87 in 10.0 mi SSE 16.1 mph 19.6 mph N/A   Clear
1:54 PM 69.8 °F 48.2 °F 46% 29.86 in 10.0 mi SSE 13.8 mph 24.2 mph N/A   Clear
2:14 PM 69.8 °F 48.2 °F 46% 29.86 in 10.0 mi SSE 16.1 mph 21.9 mph N/A   Clear
2:35 PM 71.6 °F 48.2 °F 43% 29.85 in 10.0 mi SSE 15.0 mph 24.2 mph N/A   Clear
2:54 PM 71.6 °F 48.2 °F 43% 29.84 in 10.0 mi SSE 13.8 mph 21.9 mph N/A   Clear
3:14 PM 71.6 °F 48.2 °F 43% 29.84 in 10.0 mi SE 12.7 mph 17.3 mph N/A   Clear
3:34 PM 71.6 °F 48.2 °F 43% 29.84 in 10.0 mi SSE 15.0 mph 23.0 mph N/A   Clear
3:54 PM 71.6 °F 50.0 °F 46% 29.84 in 10.0 mi SE 16.1 mph 23.0 mph N/A   Clear
4:15 PM 71.6 °F 48.2 °F 43% 29.84 in 10.0 mi SSE 12.7 mph 23.0 mph N/A   Clear
4:34 PM 71.6 °F 48.2 °F 43% 29.84 in 10.0 mi SSE 15.0 mph 23.0 mph N/A   Clear
4:54 PM 71.6 °F 48.2 °F 43% 29.84 in 10.0 mi SE 15.0 mph 24.2 mph N/A   Clear
5:15 PM 69.8 °F 48.2 °F 46% 29.84 in 10.0 mi SE 15.0 mph 21.9 mph N/A   Clear
5:34 PM 69.8 °F 48.2 °F 46% 29.84 in 10.0 mi SE 13.8 mph 23.0 mph N/A   Clear
5:54 PM 69.8 °F 48.2 °F 46% 29.85 in 10.0 mi SE 13.8 mph 18.4 mph N/A   Clear
6:15 PM 69.8 °F 48.2 °F 46% 29.85 in 10.0 mi SE 12.7 mph 17.3 mph N/A   Clear
6:34 PM 68.0 °F 48.2 °F 49% 29.86 in 10.0 mi SE 11.5 mph 17.3 mph N/A   Clear
6:54 PM 66.2 °F 48.2 °F 52% 29.86 in 10.0 mi SE 9.2 mph - N/A   Clear
7:14 PM 64.4 °F 50.0 °F 59% 29.86 in 10.0 mi SE 9.2 mph - N/A   Clear
7:34 PM 64.4 °F 48.2 °F 56% 29.86 in 10.0 mi SE 9.2 mph - N/A   Clear
7:54 PM 62.6 °F 48.2 °F 59% 29.87 in 10.0 mi SE 8.1 mph - N/A   Clear
8:14 PM 62.6 °F 50.0 °F 63% 29.88 in 10.0 mi ESE 6.9 mph - N/A   Clear
8:35 PM 60.8 °F 50.0 °F 68% 29.88 in 10.0 mi ESE 8.1 mph - N/A   Clear
8:54 PM 60.8 °F 50.0 °F 68% 29.89 in 10.0 mi ESE 6.9 mph - N/A   Clear
9:14 PM 59.0 °F 50.0 °F 72% 29.89 in 10.0 mi ESE 8.1 mph - N/A   Clear
9:35 PM 59.0 °F 50.0 °F 72% 29.89 in 10.0 mi SE 8.1 mph - N/A   Clear
9:54 PM 59.0 °F 50.0 °F 72% 29.90 in 10.0 mi ESE 9.2 mph - N/A   Clear
10:14 PM 59.0 °F 50.0 °F 72% 29.90 in 10.0 mi ESE 8.1 mph - N/A   Clear
10:35 PM 59.0 °F 50.0 °F 72% 29.90 in 10.0 mi SE 8.1 mph - N/A   Clear
10:54 PM 57.2 °F 50.0 °F 77% 29.91 in 10.0 mi ESE 9.2 mph - N/A   Clear
11:14 PM 57.2 °F 48.2 °F 72% 29.91 in 10.0 mi ESE 8.1 mph - N/A   Clear
11:35 PM 55.4 °F 48.2 °F 77% 29.91 in 10.0 mi ESE 8.1 mph - N/A   Clear
11:54 PM 55.4 °F 50.0 °F 82% 29.91 in 10.0 mi ESE 8.1 mph - N/A   Clear